Big Bear City, CA

9:01 PM PST on February 23, 2018 (GMT -0800)
Big Bear City

Weather History for KL35 - December, 2011

Change the Weather History Date:

Friday, December 23, 2011

  Actual Average (KBUO) Record (KBUO)
Temperature  
Mean Temperature 28 °F -  
Max Temperature 37 °F 60 °F 68 °F (2000)
Min Temperature 19 °F 41 °F 30 °F (1997)
Degree Days  
Heating Degree Days 37    
Moisture  
Dew Point -11 °F    
Average Humidity 18    
Maximum Humidity 33    
Minimum Humidity 10    
Precipitation  
Precipitation 0.00 in - - ()
Sea Level Pressure  
Sea Level Pressure 30.44 in    
Wind  
Wind Speed 11 mph (ENE)    
Max Wind Speed 21 mph    
Max Gust Speed 36 mph    
Visibility 10 miles    
Events      
Averages and records for this station are not official NWS values.
T = Trace of Precipitation, MM = Missing Value Source: NWS Daily Summary

Daily Weather History Graph

Daily Weather History Graph

Search for Another Location

Airport or City:

Trip Planner

Search our weather history database for the weather conditions in past years. The results will help you decide how hot, cold, wet, or windy it might be!

Date:

Astronomy

Dec. 23, 2011 Rise Set
Actual Time 6:50 AM PST 4:42 PM PST
Civil Twilight 6:22 AM PST 5:10 PM PST
Nautical Twilight 5:51 AM PST 5:41 PM PST
Astronomical Twilight 5:20 AM PST 6:12 PM PST
Moon 5:44 AM PST (12/23) 3:56 PM PST (12/23)
Length of Visible Light 10h 47m
Length of Day
9h 52m
Waning Crescent, 1% of the Moon is Illuminated
Dec 23
Waning Crescent
Dec 24
New
Dec 31
First Quarter
Jan 8
Full
Jan 16
Last Quarter

Hourly Weather History & Observations

Time (PST) Temp. Windchill Dew Point Humidity Pressure Visibility Wind Dir Wind Speed Gust Speed Precip Events Conditions
12:35 AM 23.0 °F 13.1 °F -14.8 °F 18% 30.39 in 10.0 mi ENE 9.2 mph - N/A   Clear
12:55 AM 23.0 °F 13.1 °F -14.8 °F 18% 30.39 in 10.0 mi NE 9.2 mph 18.4 mph N/A   Clear
1:15 AM 24.8 °F 16.1 °F -16.6 °F 16% 30.40 in 10.0 mi NE 8.1 mph 17.3 mph N/A   Clear
1:35 AM 24.8 °F 16.1 °F -16.6 °F 16% 30.40 in 10.0 mi NE 8.1 mph - N/A   Clear
1:55 AM 26.6 °F 20.0 °F -18.4 °F 13% 30.40 in 10.0 mi NNE 5.8 mph 21.9 mph N/A   Clear
2:15 AM 26.6 °F 14.3 °F -18.4 °F 13% 30.40 in 10.0 mi NE 16.1 mph 23.0 mph N/A   Clear
2:35 AM 28.4 °F 18.0 °F -20.2 °F 11% 30.40 in 10.0 mi NNE 12.7 mph 23.0 mph N/A   Clear
2:55 AM 28.4 °F 17.5 °F -20.2 °F 11% 30.40 in 10.0 mi NNE 13.8 mph 18.4 mph N/A   Clear
3:15 AM 28.4 °F 18.0 °F -22.0 °F 10% 30.40 in 10.0 mi NE 12.7 mph 24.2 mph N/A   Clear
3:35 AM 28.4 °F 16.6 °F -22.0 °F 10% 30.39 in 10.0 mi NNE 16.1 mph 26.5 mph N/A   Clear
3:55 AM 28.4 °F 15.4 °F -18.4 °F 12% 30.39 in 10.0 mi ENE 19.6 mph 31.1 mph N/A   Clear
4:15 AM 28.4 °F 16.2 °F -18.4 °F 12% 30.39 in 10.0 mi ENE 17.3 mph 29.9 mph N/A   Clear
4:35 AM 26.6 °F 13.4 °F -16.6 °F 14% 30.39 in 10.0 mi ENE 18.4 mph 25.3 mph N/A   Clear
4:55 AM 26.6 °F 14.7 °F -16.6 °F 14% 30.40 in 10.0 mi ENE 15.0 mph 26.5 mph N/A   Clear
5:55 AM 21.2 °F 10.1 °F -13.0 °F 22% 30.41 in 10.0 mi ENE 10.4 mph - N/A   Clear
6:15 AM 23.0 °F 13.1 °F -13.0 °F 20% 30.42 in 10.0 mi East 9.2 mph - N/A   Clear
6:35 AM 23.0 °F 13.1 °F -13.0 °F 20% 30.43 in 10.0 mi East 9.2 mph 17.3 mph N/A   Clear
6:55 AM 23.0 °F 13.1 °F -13.0 °F 20% 30.44 in 10.0 mi East 9.2 mph - N/A   Clear
7:15 AM 23.0 °F 13.1 °F -11.2 °F 22% 30.45 in 10.0 mi ENE 9.2 mph - N/A   Clear
7:35 AM 19.4 °F 8.6 °F -9.4 °F 28% 30.46 in 10.0 mi ENE 9.2 mph - N/A   Clear
7:55 AM 21.2 °F 10.1 °F -7.6 °F 28% 30.46 in 10.0 mi ENE 10.4 mph - N/A   Clear
8:15 AM 30.2 °F 18.5 °F -14.8 °F 14% 30.47 in 10.0 mi NE 17.3 mph 21.9 mph N/A   Clear
8:35 AM 32.0 °F 21.2 °F -14.8 °F 13% 30.47 in 10.0 mi ENE 16.1 mph 20.7 mph N/A   Clear
8:55 AM 32.0 °F 22.5 °F -13.0 °F 14% 30.48 in 10.0 mi ENE 12.7 mph - N/A   Clear
9:15 AM 32.0 °F 20.8 °F -13.0 °F 14% 30.48 in 10.0 mi NE 17.3 mph 25.3 mph N/A   Clear
9:55 AM 33.8 °F 22.2 °F -13.0 °F 13% 30.48 in 10.0 mi ENE 20.7 mph 31.1 mph N/A   Clear
10:15 AM 33.8 °F 22.5 °F -13.0 °F 13% 30.48 in 10.0 mi NE 19.6 mph 35.7 mph N/A   Clear
11:15 AM 35.6 °F 25.5 °F -9.4 °F 14% 30.47 in 10.0 mi ENE 17.3 mph 26.5 mph N/A   Clear
11:35 AM 35.6 °F 25.5 °F -7.6 °F 16% 30.47 in 10.0 mi ENE 17.3 mph 28.8 mph N/A   Clear
11:55 AM 35.6 °F 26.2 °F -9.4 °F 14% 30.46 in 10.0 mi NE 15.0 mph 29.9 mph N/A   Clear
12:15 PM 35.6 °F 25.9 °F -7.6 °F 16% 30.45 in 10.0 mi ENE 16.1 mph 21.9 mph N/A   Clear
12:35 PM 35.6 °F 26.6 °F -7.6 °F 16% 30.45 in 10.0 mi ENE 13.8 mph 24.2 mph N/A   Clear
12:55 PM 35.6 °F 27.1 °F -7.6 °F 16% 30.44 in 10.0 mi ENE 12.7 mph 17.3 mph N/A   Clear
1:15 PM 35.6 °F 27.5 °F -7.6 °F 16% 30.44 in 10.0 mi East 11.5 mph - N/A   Clear
1:35 PM 35.6 °F 27.1 °F -7.6 °F 16% 30.43 in 10.0 mi ENE 12.7 mph 20.7 mph N/A   Clear
1:55 PM 35.6 °F 27.1 °F -7.6 °F 16% 30.43 in 10.0 mi East 12.7 mph 19.6 mph N/A   Clear
2:15 PM 37.4 °F 30.3 °F -7.6 °F 15% 30.43 in 10.0 mi ENE 10.4 mph - N/A   Clear
2:35 PM 37.4 °F 29.3 °F -7.6 °F 15% 30.43 in 10.0 mi ENE 12.7 mph 18.4 mph N/A   Clear
2:55 PM 37.4 °F 30.3 °F -11.2 °F 12% 30.43 in 10.0 mi NE 10.4 mph 18.4 mph N/A   Clear
3:15 PM 37.4 °F 29.3 °F -13.0 °F 11% 30.43 in 10.0 mi ENE 12.7 mph 24.2 mph N/A   Clear
3:35 PM 35.6 °F 28.0 °F -9.4 °F 14% 30.44 in 10.0 mi East 10.4 mph - N/A   Clear
3:55 PM 35.6 °F 29.9 °F -9.4 °F 14% 30.44 in 10.0 mi East 6.9 mph - N/A   Clear
4:15 PM 33.8 °F 27.0 °F -7.6 °F 17% 30.43 in 10.0 mi East 8.1 mph - N/A   Clear
4:35 PM 32.0 °F 27.5 °F -7.6 °F 18% 30.44 in 10.0 mi East 4.6 mph - N/A   Clear
4:55 PM 32.0 °F 24.8 °F -9.4 °F 17% 30.43 in 10.0 mi ENE 8.1 mph - N/A   Clear
5:15 PM 32.0 °F 26.4 °F -7.6 °F 18% 30.44 in 10.0 mi East 5.8 mph - N/A   Clear
5:35 PM 30.2 °F 24.3 °F -5.8 °F 21% 30.44 in 10.0 mi East 5.8 mph - N/A   Clear
5:55 PM 30.2 °F 23.4 °F -4.0 °F 23% 30.45 in 10.0 mi SE 6.9 mph - N/A   Clear
6:35 PM 30.2 °F 23.4 °F -7.6 °F 19% 30.45 in 10.0 mi East 6.9 mph - N/A   Clear
6:55 PM 28.4 °F 20.4 °F -5.8 °F 23% 30.46 in 10.0 mi ENE 8.1 mph - N/A   Clear
7:15 PM 26.6 °F 19.1 °F -4.0 °F 26% 30.46 in 10.0 mi ENE 6.9 mph - N/A   Clear
7:35 PM 26.6 °F 19.1 °F -4.0 °F 26% 30.47 in 10.0 mi ENE 6.9 mph - N/A   Clear
7:55 PM 23.0 °F 13.9 °F -2.2 °F 33% 30.46 in 10.0 mi ENE 8.1 mph - N/A   Clear
8:15 PM 23.0 °F 13.9 °F -4.0 °F 31% 30.46 in 10.0 mi East 8.1 mph - N/A   Clear
8:35 PM 23.0 °F 13.1 °F -2.2 °F 33% 30.45 in 10.0 mi East 9.2 mph - N/A   Clear
8:55 PM 30.2 °F 21.3 °F -5.8 °F 21% 30.45 in 10.0 mi East 10.4 mph - N/A   Clear
9:15 PM 30.2 °F 25.4 °F -5.8 °F 21% 30.46 in 10.0 mi ESE 4.6 mph - N/A   Clear
9:35 PM 28.4 °F 23.3 °F 1.4 °F 31% 30.47 in 10.0 mi ENE 4.6 mph - N/A   Clear
9:55 PM 28.4 °F 22.2 °F -2.2 °F 27% 30.47 in 10.0 mi ENE 5.8 mph - N/A   Clear
10:15 PM 28.4 °F 22.2 °F -0.4 °F 29% 30.47 in 10.0 mi ENE 5.8 mph - N/A   Clear
10:35 PM 26.6 °F 21.2 °F 1.4 °F 34% 30.47 in 10.0 mi ENE 4.6 mph - N/A   Clear
10:55 PM 26.6 °F 20.0 °F 1.4 °F 34% 30.47 in 7.0 mi ENE 5.8 mph - N/A   Clear
11:15 PM 26.6 °F 21.2 °F -0.4 °F 31% 30.47 in 10.0 mi ENE 4.6 mph - N/A   Clear
11:35 PM 23.0 °F 18.4 °F 6.8 °F 50% 30.47 in 7.0 mi East 3.5 mph - N/A   Clear
11:55 PM 23.0 °F - 6.8 °F 50% 30.46 in 10.0 mi Calm Calm - N/A   Clear